Regional Weather Roundup
Issued by NWS Jackson, KY

Home | Current Version | Previous Version | Text Only | Print | Product List | Glossary On
Versions: 1 2 3 4 5 6 7 8 9 10 11 12 13 14 15 16 17 18 19 20 21 22 23 24 25 26 27 28 29 30 31 32 33 34 35 36 37 38 39 40 41 42 43 44 45 46 47 48 49 50
000
ASUS43 KJKL 302110
RWRJKL

EAST KENTUCKY HOURLY WEATHER ROUNDUP
NATIONAL WEATHER SERVICE JACKSON KY
500 PM EDT SAT MAY 30 2015

NOTE: "FAIR" INDICATES FEW OR NO CLOUDS BELOW 12,000 FEET WITH
NO SIGNIFICANT WEATHER AND/OR OBSTRUCTIONS TO VISIBILITY.

* THESE REPORTS ARE NOT UNDER NWS QUALITY CONTROL AND MAY NOT
  REPORT WEATHER SUCH AS PRECIPITATION AND FOG.

KYZ079-080-083-085-087-088-110-112-115-119-120-302200
...EASTERN KENTUCKY...

CITY           SKY/WX    TMP DP  RH WIND       PRES   REMARKS
JACKSON        MOSUNNY   83  59  44 VRB3      30.07F
LONDON         MOSUNNY   84  55  36 S10       30.06F
SOMERSET*      SUNNY     82  59  44 S12       30.06F
MONTICELLO*    SUNNY     85  63  47 S14G22    30.07F
MIDDLESBORO*   MOSUNNY   85  59  41 S7        30.08F
HARLAN APT*    MOCLDY    84  52  32 MISG      30.10S
HAZARD APT*    PTCLDY    86  54  32 S10G20    30.07F
BLACK MTN*       N/A     73  55  53 CALM        N/A
PIKEVILLE APT* PTSUNNY   84  59  42 S3        30.07F
BIG SANDY*     PTCLDY    85  62  46 SW6       30.06F
MOREHEAD APT*  PTCLDY    84  63  48 SW8G20    30.06F
$$

KYZ035-036-041-042-044-050-067-078-099-302200
...CENTRAL KENTUCKY...

CITY           SKY/WX    TMP DP  RH WIND       PRES   REMARKS
MT STERLING*   SUNNY     82  61  47 SW13      30.05F
FLEMING/MASON* MOSUNNY   82  63  51 S12G21    30.03F
DANVILLE*      PTSUNNY   81  63  54 S12G20    30.05S
RICHMOND*      SUNNY     84  59  42 S12G22    30.04F
LEXINGTON      MOSUNNY   84  67  56 S13G23    30.02F
FRANKFORT      MOSUNNY   84  61  45 S15G25    29.99F
$$

KYZ091>093-OHZ055-061-077-WVZ005-015-034-035-042-302200
...SOUTHERN OHIO/WEST VIRGINIA...

CITY           SKY/WX    TMP DP  RH WIND       PRES   REMARKS
COVINGTON      PTSUNNY   81  71  71 SW6       29.98F
COLUMBUS       PTSUNNY   82  69  64 S3        29.97F
DAYTON         PTSUNNY   83  63  50 S15G26    29.97F
WILMINGTON     PTSUNNY   80  69  69 SW10      29.98F
HUNTINGTON     MOSUNNY   85  61  44 S9        30.03F
CHARLESTON     MOSUNNY   86  64  47 SW8       30.03F
PINEVILLE*     PTSUNNY   84  62  47 MISG      30.14S
BECKLEY        PTSUNNY   80  56  43 S12       30.14F
BLUEFIELD      MOSUNNY   80  52  37 SE9G17    30.18S
$$

VAZ002-007-008-TNZ017-027-036-066-071-302200
...SOUTHWEST VIRGINIA/EAST TENNESSEE...

CITY           SKY/WX    TMP DP  RH WIND       PRES   REMARKS
WISE*          MOSUNNY   81  52  36 S10G18    30.17F
JONESVILLE*    PTCLDY    84  55  37 S3        30.11F
ABINGDON*      MOSUNNY   85  52  32 SW7       30.13F
BRISTOL        PTSUNNY   85  57  38 S9        30.09F
KNOXVILLE      PTSUNNY   85  59  41 SW10      30.06F
OAK RIDGE      PTSUNNY   85  60  42 VRB7      30.08F
CROSSVILLE     SUNNY     80  58  46 VRB7      30.12F
NASHVILLE      PTSUNNY   78  70  76 S10       30.03F
$$

...KEY TO REMARKS...
VSB - VISIBILITY IN MILES
WCI - WIND CHILL INDEX
HX  - HEAT INDEX

$$


USA.gov is the U.S. government's official web portal to all federal, state and local government web resources and services.